Back to catalog

FENGYUN 1C DEB

AlivePO
NORAD 31415·DEBRIS·🇨🇳 China

Launched May 10, 1999 from Taiyuan Satellite Launch Center

Loading…

Next Passes (next 24 hours)

TLE

FreshSource: Space-Track

Epoch: Sep 13, 2026, 04:18 UTC

1 31415U 99025BTB 26256.17948472  .00001949  00000-0  72711-3 0  9996
2 31415  99.6686 243.7066 0062332  13.5582 346.7255 14.32213099667575

Track FENGYUN 1C DEB in real time with AllMySat

Download on the App Store